Date String (YYYY-MM-DD hh:mm:ss) UTC,Instrument flags,Ambient pressure (hPa),Sample flow (lpm),Bypass flow (lpm),Sample temperature (°C),Ambient temperature (°C),ASC tube jacket temperature (°C),LED temperature (°C),Box temperature (°C),Sample RH (%),Span deviation,Mass concentration (μg/m³),Mass concentration (μg/m³),Mass concentration (μg/m³)
DateTimeUTC,F1_M11,P_M11,Q1_M11,Q2_M11,T1_M11,T2_M11,T3_M11,T4_M11,T5_M11,U1_M11,ZSPAN_M11,X2_M11,X0_M11,X1_M11
2021-11-06 09:00:00,,0828.9,5.00,0.00,28.5,27.3,00.0,37.6,30.1,08.4,0000.0,0001.36,0005.63,0000.97
2021-11-06 09:01:00,,0829.0,5.01,0.00,28.5,27.3,00.0,37.6,30.1,08.2,0000.0,0001.37,0005.55,0000.97
2021-11-06 09:02:00,,0828.9,5.01,0.00,28.5,27.3,00.0,37.6,30.1,08.0,0000.0,0001.36,0004.99,0000.98
2021-11-06 09:03:00,,0828.8,4.99,0.00,28.5,27.3,00.0,37.6,30.1,08.0,0000.0,0001.40,0005.08,0000.98
2021-11-06 09:04:00,,0828.8,5.00,0.00,28.4,27.2,00.0,37.6,30.1,08.1,0000.0,0001.41,0005.25,0000.98
2021-11-06 09:05:00,,0828.9,5.00,0.00,28.4,27.2,00.0,37.6,30.1,08.2,0000.0,0001.45,0005.51,0000.98
2021-11-06 09:06:00,,0829.2,5.00,0.00,28.4,27.2,00.0,37.6,30.1,08.2,0000.0,0001.48,0007.33,0000.98
2021-11-06 09:07:00,,0829.3,5.00,0.00,28.4,27.2,00.0,37.6,30.1,08.1,0000.0,0001.47,0007.30,0000.99
2021-11-06 09:08:00,,0829.3,5.01,0.00,28.4,27.2,00.0,37.5,30.0,08.0,0000.0,0001.43,0007.16,0001.00
2021-11-06 09:09:00,,0829.2,5.00,0.00,28.4,27.2,00.0,37.5,30.1,08.0,0000.0,0001.40,0006.45,0000.99
2021-11-06 09:10:00,,0828.9,5.00,0.00,28.4,27.3,00.0,37.5,30.1,08.0,0000.0,0001.40,0004.84,0000.99
2021-11-06 09:11:00,,0828.7,5.00,0.00,28.4,27.3,00.0,37.5,30.1,07.9,0000.0,0001.40,0004.84,0000.98
2021-11-06 09:12:00,,0828.7,4.99,0.00,28.4,27.3,00.0,37.5,30.1,07.9,0000.0,0001.38,0004.79,0000.99
2021-11-06 09:13:00,,0828.7,5.01,0.00,28.4,27.3,00.0,37.5,30.0,08.0,0000.0,0001.43,0004.74,0000.98
2021-11-06 09:14:00,,0828.8,5.00,0.00,28.4,27.3,00.0,37.5,30.0,08.1,0000.0,0001.39,0004.44,0000.98
2021-11-06 09:15:00,,0828.7,4.99,0.00,28.4,27.3,00.0,37.5,30.0,08.1,0000.0,0001.34,0004.08,0000.98
2021-11-06 09:16:00,,0828.8,5.01,0.00,28.4,27.3,00.0,37.5,30.0,07.9,0000.0,0001.32,0003.99,0000.97
2021-11-06 09:17:00,,0828.8,4.99,0.00,28.4,27.3,00.0,37.5,30.1,07.9,0000.0,0001.30,0002.17,0000.97
2021-11-06 09:18:00,,0828.7,5.00,0.00,28.4,27.3,00.0,37.5,30.0,08.0,0000.0,0001.29,0002.09,0000.98
2021-11-06 09:19:00,,0828.9,4.99,0.00,28.4,27.2,00.0,37.5,30.0,07.9,0000.0,0001.29,0002.11,0000.97
2021-11-06 09:20:00,,0829.3,4.99,0.00,28.4,27.2,00.0,37.5,30.0,07.8,0000.0,0001.31,0002.16,0000.97
2021-11-06 09:21:00,,0829.3,5.01,0.00,28.3,27.2,00.0,37.5,30.0,07.8,0000.0,0001.32,0002.19,0000.97
2021-11-06 09:22:00,,0829.3,5.00,0.00,28.3,27.2,00.0,37.5,30.0,07.8,0000.0,0001.30,0002.10,0000.97
2021-11-06 09:23:00,,0829.2,4.99,0.00,28.3,27.2,00.0,37.4,30.0,07.7,0000.0,0001.25,0002.02,0000.96
2021-11-06 09:24:00,,0829.3,5.00,0.00,28.3,27.2,00.0,37.4,30.0,07.7,0000.0,0001.20,0002.10,0000.96
2021-11-06 09:25:00,,0829.3,5.01,0.00,28.3,27.2,00.0,37.4,30.0,07.9,0000.0,0001.21,0002.15,0000.96
2021-11-06 09:26:00,,0829.1,5.00,0.00,28.3,27.2,00.0,37.4,29.9,08.0,0000.0,0001.25,0002.29,0000.96
2021-11-06 09:27:00,,0828.7,4.99,0.00,28.3,27.2,00.0,37.4,29.9,08.0,0000.0,0001.24,0002.13,0000.95
2021-11-06 09:28:00,,0829.0,5.00,0.00,28.3,27.2,00.0,37.4,30.0,08.0,0000.0,0001.25,0002.14,0000.95
2021-11-06 09:29:00,,0829.2,5.02,0.00,28.3,27.2,00.0,37.4,29.9,08.1,0000.0,0001.27,0002.21,0000.95
2021-11-06 09:30:00,,0829.3,5.00,0.00,28.3,27.2,00.0,37.4,30.0,08.1,0000.0,0001.29,0002.38,0000.95
2021-11-06 09:31:00,,0829.4,5.01,0.00,28.3,27.2,00.0,37.4,30.0,07.8,0000.0,0001.28,0002.82,0000.95
2021-11-06 09:32:00,,0829.3,5.01,0.00,28.3,27.2,00.0,37.4,29.9,08.0,0000.0,0001.25,0002.76,0000.95
2021-11-06 09:33:00,,0829.4,5.02,0.00,28.2,27.2,00.0,37.4,29.9,08.0,0000.0,0001.25,0002.78,0000.94
2021-11-06 09:34:00,,0829.2,5.01,0.00,28.2,27.2,00.0,37.4,29.9,08.1,0000.0,0001.27,0002.82,0000.94
2021-11-06 09:35:00,,0829.4,5.00,0.00,28.2,27.2,00.0,37.4,29.9,08.2,0000.0,0001.27,0002.57,0000.94
2021-11-06 09:36:00,,0829.3,4.99,0.00,28.2,27.2,00.0,37.3,29.9,08.2,0000.0,0001.26,0002.97,0000.94
2021-11-06 09:37:00,,0829.3,5.01,0.00,28.2,27.1,00.0,37.3,29.8,08.0,0000.0,0001.27,0004.20,0000.93
2021-11-06 09:38:00,,0829.4,5.01,0.00,28.2,27.1,00.0,37.3,29.8,07.7,0000.0,0001.30,0004.44,0000.94
2021-11-06 09:39:00,,0829.3,5.01,0.00,28.2,27.1,00.0,37.3,29.9,07.8,0000.0,0001.27,0004.49,0000.93
2021-11-06 09:40:00,,0829.4,5.01,0.00,28.2,27.1,00.0,37.3,29.9,08.0,0000.0,0001.26,0004.46,0000.93
2021-11-06 09:41:00,,0829.3,4.99,0.00,28.2,27.1,00.0,37.3,29.8,08.0,0000.0,0001.29,0004.46,0000.94
2021-11-06 09:42:00,,0828.9,5.00,0.00,28.2,27.1,00.0,37.3,29.9,08.0,0000.0,0001.34,0004.03,0000.95
2021-11-06 09:43:00,,0828.7,4.99,0.00,28.2,27.1,00.0,37.3,29.9,08.0,0000.0,0001.38,0004.14,0000.97
2021-11-06 09:44:00,,0828.7,4.98,0.00,28.2,27.1,00.0,37.3,29.9,08.0,0000.0,0001.42,0004.28,0000.99
2021-11-06 09:45:00,,0828.7,5.01,0.00,28.2,27.1,00.0,37.3,29.9,07.8,0000.0,0001.48,0004.56,0001.00
2021-11-06 09:46:00,,0828.7,4.99,0.00,28.2,27.1,00.0,37.3,29.8,08.1,0000.0,0001.53,0005.18,0001.02
2021-11-06 09:47:00,,0828.7,5.01,0.00,28.2,27.1,00.0,37.3,29.9,08.0,0000.0,0001.58,0004.92,0001.02
2021-11-06 09:48:00,,0828.8,5.00,0.00,28.2,27.1,00.0,37.3,29.9,08.0,0000.0,0001.60,0003.74,0001.04
2021-11-06 09:49:00,,0828.7,5.00,0.00,28.2,27.1,00.0,37.3,29.9,08.1,0000.0,0001.58,0003.51,0001.05
2021-11-06 09:50:00,,0828.9,5.00,0.00,28.2,27.1,00.0,37.3,29.9,08.3,0000.0,0001.61,0003.50,0001.07
2021-11-06 09:51:00,,0829.0,5.03,0.00,28.2,27.2,00.0,37.3,30.0,08.1,0000.0,0001.66,0003.59,0001.07
2021-11-06 09:52:00,,0828.7,5.00,0.00,28.2,27.2,00.0,37.3,30.0,07.9,0000.0,0001.64,0003.59,0001.07
2021-11-06 09:53:00,,0828.7,5.00,0.00,28.2,27.2,00.0,37.3,29.9,07.8,0000.0,0001.64,0003.85,0001.06
2021-11-06 09:54:00,,0828.7,5.01,0.00,28.2,27.2,00.0,37.3,29.9,07.7,0000.0,0001.63,0004.17,0001.04
2021-11-06 09:55:00,,0828.7,4.99,0.00,28.2,27.2,00.0,37.3,29.9,07.6,0000.0,0001.58,0003.99,0001.03
2021-11-06 09:56:00,,0828.9,4.99,0.00,28.2,27.2,00.0,37.3,29.8,07.4,0000.0,0001.53,0003.70,0001.01
2021-11-06 09:57:00,,0828.7,5.00,0.00,28.2,27.1,00.0,37.3,29.8,07.3,0000.0,0001.46,0003.07,0000.99
2021-11-06 09:58:00,,0828.7,5.00,0.00,28.2,27.1,00.0,37.3,29.8,07.2,0000.0,0001.44,0003.56,0000.98
2021-11-06 09:59:00,,0828.7,5.01,0.00,28.2,27.1,00.0,37.3,29.8,07.3,0000.0,0001.38,0003.52,0000.97
